Location: South Range
(44.4886°N, 65.7879°W)
Time: 20:46:53
(UTC-03:00)

Iridium 56 - Visible Passes

Search period start: 30 September 2016 00:00
Search period end: 10 October 2016 00:00
Orbit: 776 x 779 km, 86.4° (Epoch: 30 September)

Date Brightness Start Highest point End Pass type
(mag) Time Alt. Az. Time Alt. Az. Time Alt. Az.
30 Sep 8.7 06:13:01 10° ESE 06:16:27 18° ENE 06:19:53 10° NE visible
30 Sep 8.0 20:00:48 10° NNW 20:05:03 26° W 20:09:17 10° SW visible
01 Oct 6.9 19:26:46 10° NNW 19:31:44 45° W 19:36:40 10° SSW visible
02 Oct 7.0 06:44:46 10° SSE 06:49:40 44° E 06:54:37 10° NNE visible
02 Oct 9.3 20:38:01 10° WNW 20:38:05 10° WNW 20:38:10 10° WNW visible
03 Oct 8.1 06:12:10 10° SE 06:16:22 25° E 06:20:34 10° NNE visible
03 Oct 8.6 20:01:27 10° NW 20:04:58 19° WNW 20:08:28 10° WSW visible
04 Oct 8.8 05:40:28 10° ESE 05:43:11 14° ENE 05:45:53 10° NE visible
04 Oct 7.7 19:27:08 10° NNW 19:31:44 32° W 19:36:18 10° SW visible
05 Oct 6.2 06:44:35 10° S 06:49:43 63° E 06:54:53 10° N visible
06 Oct 7.3 06:11:39 10° SSE 06:16:20 35° E 06:21:03 10° NNE visible
06 Oct 8.9 20:02:32 10° NW 20:04:51 13° WNW 20:07:09 10° WSW visible
07 Oct 8.3 05:39:20 10° SE 05:43:04 20° E 05:46:49 10° NNE visible
07 Oct 8.3 19:27:40 10° NNW 19:31:41 23° W 19:35:42 10° SW visible
08 Oct 8.9 05:08:26 10° E 05:09:56 11° ENE 05:11:26 10° ENE visible
08 Oct 5.6 06:44:35 10° S 06:49:48 89° E 06:55:03 10° N visible
09 Oct 6.5 06:11:20 10° SSE 06:16:20 50° E 06:21:23 10° NNE visible
